Lumberton, NC

1:03 AM EST on February 10, 2016 (GMT -0500)
Lumberton Municipal

Weather History for KLBT - October, 2014

Change the Weather History Date:

Friday, October 31, 2014

  Actual Average Record
Temperature  
Mean Temperature 57 °F 59 °F  
Max Temperature 69 °F 72 °F 86 °F (2004)
Min Temperature 45 °F 46 °F 30 °F (2008)
Degree Days  
Heating Degree Days 8 7  
Month to date heating degree days 82 121  
Since 1 July heating degree days 88 132  
Cooling Degree Days 0 1  
Month to date cooling degree days 97 73  
Year to date cooling degree days 2052 1894  
Growing Degree Days 6 (Base 50)    
Moisture  
Dew Point 44 °F    
Average Humidity 66    
Maximum Humidity 93    
Minimum Humidity 39    
Precipitation  
Precipitation 0.00 in 0.07 in 0.47 in (2011)
Month to date precipitation 0.70 2.57  
Year to date precipitation 36.78 37.76  
Sea Level Pressure  
Sea Level Pressure 29.86 in    
Wind  
Wind Speed 4 mph (NE)    
Max Wind Speed 12 mph    
Max Gust Speed 15 mph    
Visibility 9 miles    
Events      
T = Trace of Precipitation, MM = Missing Value Source: NWS Daily Summary

Daily Weather History Graph

Daily Weather History Graph

Search for Another Location

Airport or City:

Trip Planner

Search our weather history database for the weather conditions in past years. The results will help you decide how hot, cold, wet, or windy it might be!

Date:

Astronomy

Oct. 31, 2014 Rise Set
Actual Time 7:35 AM EDT 6:23 PM EDT
Civil Twilight 7:09 AM EDT 6:49 PM EDT
Nautical Twilight 6:39 AM EDT 7:19 PM EDT
Astronomical Twilight 6:10 AM EDT 7:48 PM EDT
Moon 2:20 PM EDT (10/31) 12:40 AM EDT (10/31)
Length of Visible Light 11h 39m
Length of Day
10h 47m
First Quarter, 56% of the Moon is Illuminated
Oct 31
First Quarter
Nov 6
Full
Nov 14
Last Quarter
Nov 22
New
Nov 29
First Quarter

Hourly Weather History & Observations

Time (EDT) Temp. Windchill Dew Point Humidity Pressure Visibility Wind Dir Wind Speed Gust Speed Precip Events Conditions
12:54 AM 46.9 °F - 45.0 °F 93% 29.95 in 10.0 mi Calm Calm - N/A   Clear
1:54 AM 45.0 °F - 43.0 °F 93% 29.94 in 7.0 mi Calm Calm - N/A   Clear
2:54 AM 48.9 °F - 46.0 °F 90% 29.94 in 10.0 mi ENE 3.5 mph - N/A   Clear
3:54 AM 50.0 °F - 46.0 °F 86% 29.93 in 10.0 mi Calm Calm - N/A   Clear
4:54 AM 48.0 °F - 45.0 °F 89% 29.92 in 7.0 mi NE 5.8 mph - N/A   Clear
5:54 AM 46.9 °F - 45.0 °F 93% 29.92 in 5.0 mi NNE 4.6 mph - N/A   Clear
6:54 AM 46.0 °F 43.1 °F 44.1 °F 93% 29.92 in 6.0 mi NE 5.8 mph - N/A   Clear
7:54 AM 46.9 °F - 44.1 °F 90% 29.92 in 6.0 mi NNE 6.9 mph - N/A   Clear
8:54 AM 51.1 °F - 46.0 °F 83% 29.94 in 7.0 mi NNE 6.9 mph - N/A   Clear
9:54 AM 55.9 °F - 46.0 °F 69% 29.94 in 10.0 mi NE 5.8 mph - N/A   Clear
10:54 AM 60.1 °F - 46.0 °F 60% 29.91 in 10.0 mi Variable 4.6 mph - N/A   Clear
11:54 AM 64.0 °F - 45.0 °F 50% 29.90 in 10.0 mi Variable 4.6 mph - N/A   Clear
12:54 PM 66.0 °F - 43.0 °F 43% 29.86 in 10.0 mi Calm Calm - N/A   Clear
1:54 PM 66.0 °F - 43.0 °F 43% 29.83 in 10.0 mi North 10.4 mph - N/A   Scattered Clouds
2:54 PM 68.0 °F - 42.1 °F 39% 29.81 in 10.0 mi NNW 9.2 mph - N/A   Scattered Clouds
3:54 PM 64.9 °F - 41.0 °F 42% 29.79 in 10.0 mi Variable 3.5 mph - N/A   Scattered Clouds
4:54 PM 66.9 °F - 42.1 °F 40% 29.79 in 10.0 mi North 6.9 mph - N/A   Clear
5:54 PM 64.0 °F - 43.0 °F 46% 29.79 in 10.0 mi NNE 5.8 mph - N/A   Clear
6:54 PM 55.9 °F - 45.0 °F 67% 29.79 in 10.0 mi Calm Calm - N/A   Clear
7:54 PM 52.0 °F - 46.0 °F 80% 29.80 in 10.0 mi Calm Calm - N/A   Clear
8:54 PM 48.9 °F - 45.0 °F 86% 29.79 in 10.0 mi Calm Calm - N/A   Clear
9:54 PM 46.9 °F - 43.0 °F 86% 29.78 in 10.0 mi Calm Calm - N/A   Clear
10:54 PM 48.9 °F - 44.1 °F 83% 29.76 in 10.0 mi East 3.5 mph - N/A   Clear
11:54 PM 51.1 °F - 45.0 °F 80% 29.75 in 10.0 mi ESE 4.6 mph - N/A   Overcast